Location: Selstead
(51.1500°N, 1.1667°E)
Time: 15:17:22
(UTC+00:00)

Daily predictions for brighter satellites

Satellite Brightness Start Highest point End
(mag) Time Altitude Azimuth Time Altitude Azimuth Time Altitude Azimuth
SL-16 R/B 4.3 16:22:14 10° NNW 16:23:59 11° NNW 16:25:44 10° N
NOAA 11 4.2 16:19:41 10° SSE 16:25:06 81° ENE 16:30:35 10° NNW
USA 305 3.0 16:23:22 10° WNW 16:27:35 60° N 16:31:48 10° E
CZ-2C R/B 4.3 16:27:21 10° ENE 16:29:13 12° E 16:31:04 10° ESE
Cosmos 1842 Rocket 3.8 16:24:59 10° SSW 16:29:27 82° W 16:33:59 10° N
Cosmos 2219 Rocket 4.0 16:27:14 10° N 16:29:49 13° NNE 16:32:23 10° NE
SL-24 R/B - RUBIN 2 3.7 16:25:26 10° NW 16:30:03 82° SW 16:34:22 10° SE
Meteor 1-25 Rocket 4.2 16:24:35 10° N 16:30:12 75° ENE 16:35:49 10° SSE
Nadezhda 4 Rocket 4.2 16:25:05 10° N 16:31:27 83° W 16:37:47 10° S
Cosmos 1500 3.6 16:30:07 10° N 16:33:40 39° ENE 16:37:10 10° SE
H-2A R/B 4.3 16:30:15 10° SSW 16:33:41 38° W 16:37:08 10° NNW
Cosmos 1606 3.7 16:30:16 10° SSW 16:33:55 47° WNW 16:37:38 10° N
CZ-4B R/B 2.8 16:30:10 10° SSE 16:33:59 59° ENE 16:37:41 10° N
Cosmos 1464 Rocket 4.3 16:27:53 10° SSW 16:34:16 77° WNW 16:40:40 10° N
Cosmos 44 Rocket 3.5 16:29:49 10° NW 16:34:41 50° NE 16:39:22 10° ESE
COSMOS 2406 3.3 16:35:46 10° SSW 16:41:26 66° ESE 16:47:07 10° NE
Cosmos 468 Rocket 4.0 16:37:29 10° SSW 16:42:40 88° WNW 16:47:57 10° NNE
Meteor 1-31 Rocket 4.4 16:42:20 10° SSW 16:45:54 38° W 16:49:31 10° NNW
Cosmos 1428 Rocket 4.4 16:40:34 10° N 16:46:43 71° ENE 16:52:53 10° SSE
Cosmos 1092 Rocket 4.1 16:45:27 10° N 16:51:51 86° ENE 16:58:11 10° S
CZ-4B R/B 3.8 16:50:17 10° ESE 16:54:58 32° ENE 16:59:38 10° N
Meteor 2-21 4.4 16:49:20 10° N 16:55:27 73° ENE 17:01:29 10° SSE
USA 267 3.8 16:50:26 11° ENE 16:56:25 44° SE 17:02:36 10° SSW
CZ-2D R/B 3.9 16:53:35 10° SE 16:57:02 33° ENE 17:00:30 10° N
ATLAS CENTAUR R/B 2.9 16:48:09 10° SW 16:58:02 74° SE 17:01:31 15° ENE
Cosmos 1939 Rocket 2.8 16:55:35 10° SSE 16:59:39 74° ENE 17:03:42 10° N
USA 306 2.9 16:55:42 10° WNW 16:59:58 69° NNE 17:03:51 12° E
Cosmos 1633 Rocket 3.4 16:56:25 10° N 17:00:36 43° ENE 17:04:47 10° SE
COSMO-SKYMED 1 4.1 16:59:10 14° ENE 17:00:50 17° E 17:03:42 10° SE
Cosmos 1151 Rocket 3.6 16:58:17 10° SSE 17:02:16 36° E 17:06:17 10° NNE
Cosmos 1666 2.9 16:58:49 10° N 17:02:25 45° ENE 17:05:59 10° SSE
Cosmos 2360 Rocket 3.2 16:59:25 10° NNW 17:04:10 26° NE 17:08:17 12° E
Cosmos 1782 2.8 17:00:19 10° S 17:04:16 66° E 17:08:14 10° NNE
ISS -1.1 17:02:32 10° W 17:05:13 22° SW 17:07:53 10° SSE
SeaSat 1 3.7 17:03:36 10° NNE 17:08:08 37° NW 17:12:38 10° WSW
SL-08 R/B 3.5 17:03:56 10° N 17:08:38 71° WNW 17:13:14 10° SSW
Cosmos 1763 Rocket 4.1 17:04:05 10° SW 17:09:04 54° WNW 17:14:09 10° NNE
PAYLOAD B 4.3 17:04:19 10° SE 17:09:47 56° ENE 17:15:15 10° N
Cosmos 1818 3.5 17:04:44 10° NW 17:10:16 83° NE 17:15:44 10° SE
YAOGAN 1 4.1 17:11:21 16° NE 17:11:21 16° NE 17:13:31 10° NNE
ATLAS 5 CENTAUR R/B 2.5 17:08:06 10° NW 17:17:15 58° NNE 17:19:38 18° ESE
Cosmos 1536 4.4 17:14:40 10° NNE 17:16:30 18° NE 17:16:30 18° NE
Cosmos 2279 Rocket 4.1 17:12:20 10° SSE 17:18:22 55° E 17:24:24 10° NNE
Cosmos 841 Rocket 3.4 17:14:05 10° SSW 17:19:15 89° WNW 17:24:26 10° NNE
Cosmos 2266 Rocket 4.4 17:13:28 10° N 17:19:32 42° ENE 17:25:35 10° SE
ERBS 3.4 17:16:52 10° WNW 17:19:42 28° N 17:20:46 23° NE
USA 307 2.8 17:16:17 10° WNW 17:20:32 76° NNE 17:23:32 19° E
CZ-4C R/B 3.3 17:14:03 10° NW 17:21:07 70° SW 17:29:27 10° SSE
Lacrosse 5 rocket 1.7 17:19:45 10° WNW 17:23:36 62° SW 17:27:39 10° SE
NOSS 3-4 (A) 4.4 17:18:48 10° NW 17:24:45 35° NNE 17:28:52 20° ENE
NOSS 3-4 (C) 4.4 17:18:53 10° NW 17:24:50 35° NNE 17:28:56 20° ENE
SL-08 RB Rocket 4.5 17:22:25 10° ESE 17:26:23 29° ENE 17:30:20 10° N
ATLAS 2AS CENTAUR R/B 3.8 17:20:28 10° WNW 17:27:09 32° N 17:31:18 19° NE
Cosmos 2322 Rocket 2.4 17:21:46 10° NNW 17:27:18 48° NE 17:32:48 10° SE
Cosmos 1933 Rocket 4.2 17:23:44 10° N 17:27:39 32° ENE 17:31:32 10° SE
COSMOS 2428 4.1 17:23:46 10° NNW 17:27:44 19° NNE 17:28:43 18° NE
Cosmos 2208 Rocket 4.3 17:23:31 10° S 17:28:45 52° ESE 17:32:51 17° NE
Cosmos 2150 Rocket 3.9 17:24:07 10° NNW 17:29:16 62° ENE 17:34:27 10° SE
Cosmos 1666 Rocket 3.6 17:25:45 10° NNW 17:30:13 85° W 17:34:37 10° S
Cosmos 1980 Rocket 3.3 17:25:03 10° NW 17:30:27 47° WSW 17:35:49 10° S
AQUARIUS 4.4 17:26:32 10° S 17:31:00 73° WSW 17:35:31 10° NNW
USA 234 3.4 17:25:19 10° SE 17:31:53 80° SSW 17:38:28 10° WNW
Cosmos 1328 Rocket 3.7 17:27:58 10° S 17:32:16 52° E 17:36:01 13° NNE
Cosmos 1470 Rocket 3.6 17:29:25 10° N 17:33:49 55° ENE 17:38:13 10° SSE
Cosmos 1544 3.4 17:30:30 10° N 17:33:56 40° ENE 17:37:22 10° SE
Cosmos 1125 Rocket 3.4 17:30:16 10° NNW 17:35:30 65° ENE 17:40:45 10° SE
X-37B 3.0 17:36:44 10° S 17:37:35 11° SSE 17:37:49 11° SSE
Cosmos 1812 2.6 17:34:13 10° S 17:38:04 88° WNW 17:41:44 11° N
PSLV R/B 3.8 17:35:22 10° S 17:39:04 78° WSW 17:42:52 10° NNW
H-2A R/B 1.9 17:34:46 10° SSE 17:39:52 83° ENE 17:44:54 10° NNW
Cosmos 1634 Rocket 4.3 17:34:30 10° SSW 17:40:49 73° WNW 17:47:11 10° N
Meteor 1-11 Rocket 3.8 17:35:20 10° N 17:40:52 52° ENE 17:46:28 10° SSE
Okean O Rocket 1.7 17:37:21 10° SE 17:41:40 51° ENE 17:46:01 10° N
Meteor 2-8 Rocket 4.4 17:36:13 10° S 17:42:16 63° E 17:48:22 10° NNE
Meteor 1-10 Rocket 4.4 17:36:56 10° SSE 17:42:23 48° E 17:47:12 13° NNE
ATLAS CENTAUR R/B 3.6 17:39:58 10° NW 17:42:45 16° N 17:44:13 14° NNE
USA 308 2.8 17:38:59 10° WNW 17:43:15 89° NNE 17:45:21 29° ESE
GEOS 3 Rocket 4.2 17:41:55 27° ENE 17:43:56 38° NNE 17:48:42 10° NW
SL-16 R/B 2.1 17:42:18 10° NNW 17:48:01 79° ENE 17:53:42 10° SSE
Cosmos 2237 Rocket 4.0 17:46:10 10° N 17:49:00 14° NNE 17:49:04 14° NNE
SKYMED 2 3.8 17:47:47 32° NE 17:49:18 46° E 17:53:29 10° S
ARGOS 3.1 17:46:25 10° SSE 17:51:47 68° ENE 17:57:09 10° N
Cosmos 2082 Rocket 2.5 17:46:49 10° SW 17:52:28 66° WNW 17:56:57 17° NNE
CZ-4 R/B 3.6 17:58:56 12° N 17:58:56 12° N 17:59:21 10° N
deb Chang Zheng 4 3.4 17:52:54 10° SSE 17:57:13 81° ENE 18:01:33 10° NNW
COSMOS 2455 3.3 17:54:50 10° SW 18:00:46 58° NW 18:04:54 20° NNE
Cosmos 1833 Rocket 4.1 18:01:07 10° WSW 18:06:07 32° NW 18:10:35 13° NNE
Feng Yun 1-1 Rocket 4.3 18:00:54 10° SSE 18:06:42 62° ENE 18:12:27 10° N
USA 305 3.1 18:03:19 10° WNW 18:07:32 67° SSW 18:08:52 41° SE
Cosmos 2333 Rocket 2.7 18:02:27 10° NNW 18:07:49 37° NE 18:08:04 37° NE
Cosmos 1356 Rocket 3.3 18:04:18 10° NNW 18:08:33 84° E 18:12:48 10° SSE
CZ-2C R/B 2.4 18:06:50 20° NNE 18:10:29 74° ESE 18:15:38 10° S
SL-16 R/B 4.3 18:09:17 10° N 18:11:00 11° NNE 18:11:02 11° NNE
Cosmos 2219 Rocket 2.9 18:10:26 10° NNW 18:15:05 34° NE 18:15:05 34° NE
Cosmos 1655 Rocket 4.1 18:09:57 10° NNW 18:16:22 82° W 18:22:43 10° S
Aureole 3 Rocket 3.7 18:14:01 10° S 18:18:42 58° E 18:25:20 10° NNE
Cosmos 1515 Rocket 3.4 18:14:57 10° S 18:19:23 84° E 18:20:26 52° NNE
Cosmos 921 Rocket 3.0 18:17:38 10° SSW 18:21:52 76° WNW 18:22:47 53° N
Spot 2 4.3 18:23:28 26° SSE 18:26:23 71° ENE 18:31:26 10° NNW
Cosmos 371 Rocket 3.6 18:29:59 10° NNW 18:33:50 53° N 18:33:50 53° N
CZ-4B R/B 4.0 18:30:11 10° S 18:35:23 48° W 18:40:32 10° NNW
Cosmos 2333 4.3 18:30:05 10° NNW 18:35:33 57° NE 18:35:33 57° NE
COSMO-SKYMED 1 2.9 18:36:23 47° NNW 18:37:26 63° WNW 18:41:43 10° SSW
USA 306 3.7 18:35:40 10° WNW 18:39:44 46° SW 18:39:52 46° SSW
USA 267 3.2 18:37:47 48° NE 18:39:47 81° NNW 18:46:20 10° WSW
Landsat 5 4.5 18:41:37 37° SSW 18:41:37 37° SSW 18:44:03 10° SSW
Meteor 1-27 Rocket 3.5 18:39:51 10° S 18:45:22 90° E 18:46:30 59° NNE
YAOGAN 1 4.0 18:48:30 30° NNW 18:48:30 30° NNW 18:50:44 10° NNW
Cosmos 836 Rocket 4.4 18:42:55 10° SSW 18:48:13 87° WNW 18:48:20 85° NNW
Cosmos 2360 Rocket 2.2 18:43:07 10° NNW 18:48:49 80° WSW 18:50:08 55° SSE
USA 307 4.3 18:56:19 10° WNW 18:59:35 35° WSW 18:59:35 35° WSW
Lacrosse 5 rocket 4.2 19:00:14 10° W 19:02:05 13° SW 19:03:59 10° SSW
Cosmos 2322 Rocket 3.5 19:06:04 10° NW 19:11:15 37° WSW 19:16:26 10° S
COSMOS 2428 3.9 19:07:32 10° NNW 19:10:45 33° NNW 19:10:45 33° NNW
NOSS 3-4 (A) 3.7 19:09:45 10° NW 19:16:19 78° NNE 19:16:19 78° NNE
NOSS 3-4 (C) 3.7 19:09:52 10° NW 19:16:23 78° NNE 19:16:23 78° NNE
Okean O Rocket 4.0 19:14:50 10° SW 19:18:18 22° W 19:21:47 10° NW
ATLAS 2AS CENTAUR R/B 3.3 19:12:33 10° NW 19:18:44 47° N 19:18:44 47° N
Cosmos 1867 4.3 19:15:17 10° SW 19:19:10 47° SW 19:19:10 47° SW
GEOS 3 Rocket 4.3 19:23:02 50° WNW 19:23:02 50° WNW 19:26:59 10° NW
ATLAS CENTAUR R/B 4.2 19:19:38 10° NNW 19:20:20 13° NNW 19:20:20 13° NNW
ATLAS CENTAUR R/B 4.3 19:24:20 10° WNW 19:27:07 22° WNW 19:27:07 22° WNW
Cosmos 2237 Rocket 4.3 19:29:30 10° NNW 19:30:53 17° NNW 19:30:53 17° NNW
Cosmos 2082 Rocket 4.2 19:33:39 10° WNW 19:37:40 19° NNW 19:38:48 18° NNW
Cosmos 2333 Rocket 3.6 19:46:43 10° NW 19:50:07 34° WNW 19:50:07 34° WNW
Cosmos 2219 Rocket 4.0 19:54:18 10° NW 19:56:49 26° NW 19:56:49 26° NW
